Tracking 28888 objects as of 22-May-2024
HD Live streaming from Space Station
objects crossing your sky now

STARLINK-6028

Track STARLINK-6028 now!
10-day predictions
STARLINK-6028 is classified as:


NORAD ID: 56818
Int'l Code: 2023-078BD
Perigee: 577.0 km
Apogee: 581.3 km
Inclination: 70.0 °
Period: 96.1 minutes
Semi major axis: 6950 km
RCS: Unknown
Launch date: May 31, 2023
Source: United States (US)
Launch site: AIR FORCE WESTERN TEST RANGE (AFWTR)
Your satellite tracking list
Your tracking list is empty




NASA's NSSDC Master Catalog

Two Line Element Set (TLE):
1 56818U 23078BD  24143.16569027  .00000138  00000-0  19375-4 0  9999
2 56818  69.9996 199.6101 0003129 269.2579  90.8222 14.98336740 54603
Source of the keplerian elements: AFSPC